Regional Weather Roundup
Issued by NWS Northern Indiana

Home | Current Version | Previous Version | Text Only | Print | Product List | Glossary Off
Versions: 1 2 3 4 5 6 7 8 9 10 11 12 13 14 15 16 17 18 19 20 21 22 23 24 25 26 27 28 29 30 31 32 33 34 35 36 37 38 39 40 41 42 43 44 45 46 47 48 49 50

000
ASUS43 KIWX 261710
RWRIWX

KIWX WEATHER ROUNDUP
NATIONAL WEATHER SERVICE NORTHERN INDIANA
100 PM EDT SUN APR 26 2015

NOTE: "FAIR" INDICATES FEW OR NO CLOUDS BELOW 12,000 FEET WITH NO
SIGNIFICANT WEATHER AND/OR OBSTRUCTIONS TO VISIBILITY.

* THESE STATIONS ARE NOT UNDER NWS QUALITY CONTROL. THEY ALSO MAY NOT
  REPORT WEATHER SUCH AS PRECIPITATION OR FOG.

INZ001>027-261800-
NORTHERN INDIANA

CITY           SKY/WX    TMP DP  RH WIND       PRES   REMARKS
GARY*          SUNNY     48  32  53 N10       30.04
VALPARAISO     SUNNY     51  32  48 N10       30.00S
MICHIGAN CITY* SUNNY     46  28  49 N13       30.02S
LAPORTE*       SUNNY     52  33  47 N16       30.00S
KNOX*          MOSUNNY   52  12  20 NE15G23   29.97F
SOUTH BEND     PTSUNNY   54  29  38 N13G20    29.98F
GOSHEN         SUNNY     53  32  44 N16G23    29.96S
MONTICELLO*    MOSUNNY   52  34  49 NE16G23   29.96S
LOGANSPORT*    MOSUNNY   52  30  43 N10       29.96S
ROCHESTER*     SUNNY     54  32  43 NE10G21   29.96S
WARSAW*        MOSUNNY   52  32  46 N12G22    29.95F
ANGOLA*        SUNNY     52  36  54 N7        29.94S
FORT WAYNE     MOSUNNY   54  34  46 NE14G20   29.93F
HUNTINGTON*    SUNNY     52  32  45 NE10      29.93S
PERU/GRISSOM   MOSUNNY   53  34  49 NE8       29.94S
MARION*        PTSUNNY   51  32  49 N13       29.94S

$$
INZ028>050-261800-
CENTRAL INDIANA

CITY           SKY/WX    TMP DP  RH WIND       PRES   REMARKS
LAFAYETTE      MOSUNNY   52  34  50 NE14G21   29.96S
KOKOMO*        PTSUNNY   52  36  54 N10       29.94S
MUNCIE*        SUNNY     52  37  56 NE12      29.92S
INDIANAPOLIS   MOSUNNY   53  33  46 NE13G21   29.90F

$$
MIZ043>046-050>051-056>058-064>065-071>073-077>080-261800-
SOUTHWEST LOWER MICHIGAN

CITY           SKY/WX    TMP DP  RH WIND       PRES   REMARKS
BATTLE CREEK   PTSUNNY   54  30  40 N12G17    29.96F
BENTON HARBOR  SUNNY     47  30  51 VRB7      30.00F
COLDWATER*     MOSUNNY   51  29  43 NE7G16    29.95S
HILLSDALE*     MOSUNNY   52  29  40 NE7G16    29.92F
HOLLAND        MOSUNNY   59  31  34 N8        29.99S
GRAND RAPIDS   MOSUNNY   54  26  34 N6        29.97F
KALAMAZOO      MOSUNNY   53  27  36 VRB7      29.97F
STURGIS*       MOSUNNY   52  30  43 CALM      29.95S
THREE RIVERS*  FAIR      53  29  39 N10       29.96F

$$
OHZ001>008-015>018-024>025-261800-
NORTHWEST OHIO

CITY           SKY/WX    TMP DP  RH WIND       PRES   REMARKS
WAUSEON*       FAIR      54  28  37 E14G25    29.91S
DEFIANCE       SUNNY     55  29  36 N17       29.92S
FINDLAY        SUNNY     54  30  40 NE13G22   29.89S
TOLEDO EXPRESS MOSUNNY   54  28  36 N14       29.90F
TOLEDO METCALF SUNNY     53  29  39 NE13G23   29.92S
LIMA           MOSUNNY   51  34  52 N13       29.89S

$$
AND FOR LAKE MICHIGAN COASTAL AND OPEN LAKE BUOY OBSERVATIONS

STATION/POSITION TEMP    WIND        PRES    VSBY  WAVE
                 AIR SEA DIR/SP/G                  HT/PER
                 (F)     (DEG/KT/KT) (MB)    (MI)  (FT/S)
CALUMET HARBOR    42     340/ 14/ 16   N/A
MICHIGAN CITY     41     340/ 13/ 16   N/A
BURNS HARBOR      41     360/ 12/ 14 1017.3S
SAINT JOSEPH      44     340/ 11/ 13 1016.3S
MICHIGAN CITY     39 45  360/ 12/ 14   N/A           3/ 6

$$
&&


USA.gov is the U.S. government's official web portal to all federal, state and local government web resources and services.